Regional Weather Roundup
Issued by NWS

Home | Current Version | Previous Version | Graphics & Text | Print | Product List | Glossary On
Versions: 1 2 3 4 5 6 7 8 9 10 11 12 13 14 15 16 17 18 19 20 21 22 23 24 25 26 27
000
ASUS45 KCYS 302210
RWRWY

WYOMING REGIONAL WEATHER ROUNDUP
NATIONAL WEATHER SERVICE CHEYENNE WY
400 PM MDT MON MAY 30 2016

NOTE:  "FAIR" INDICATES FEW OR NO CLOUDS BELOW 12,000 FEET
WITH NO SIGNIFICANT WEATHER AND/OR OBSTRUCTIONS TO VISIBILITY.

WYZ001-302300-
YELLOWSTONE NATIONAL PARK

CITY           SKY/WX    TMP DP  RH WIND       PRES   REMARKS
LK YELLOWSTONE   N/A     56  22  26 NW12G24   30.18S
W YELLOWSTONE  NOT AVBL

$$
WYZ002>013-054>058-071-098>099-302300-
NORTHERN WYOMING

CITY           SKY/WX    TMP DP  RH WIND       PRES   REMARKS
JACKSON        MOSUNNY   63  27  25 SW16G26   30.12S
CODY           PTSUNNY   54  45  71 N18G28    30.06R
GREYBULL       FAIR      67  37  33 N30G37    29.98R
WORLAND        FAIR      69  43  38 N21       29.97F
SHERIDAN       CLOUDY    57  47  69 W10       30.04S
BUFFALO        LGT RAIN  51  44  77 N22G36    30.05R
GILLETTE       CLOUDY    63  42  46 N13       29.96S
HULETT         MOCLDY    64  46  52 NW8G18    29.95F
NEWCASTLE      FAIR      70  34  26 NW17G23   29.92F

$$
WYZ014>020-022>026-101>103-302300-
CENTRAL WYOMING

CITY           SKY/WX    TMP DP  RH WIND       PRES   REMARKS
BIG PINEY      FAIR      66  30  26 NW20G26   30.14S
PINEDALE       FAIR      61  28  29 W22       30.14S
DUBOIS         FAIR      63  23  22 W32       30.07F
LANDER         PTSUNNY   73  29  19 NW12G24   29.97F
RIVERTON       FAIR      75  29  18 NW16G22   29.98S
CASPER         FAIR      54  48  80 NE10      29.99F
DOUGLAS          N/A    N/A N/A N/A MISG      29.99F

$$
WYZ021-027>030-104>119-302300-
SOUTHERN WYOMING

CITY           SKY/WX    TMP DP  RH WIND       PRES   REMARKS
EVANSTON       PTSUNNY   64  33  31 W17G26    30.18S
KEMMERER         N/A     63  32  31 W20G28    30.17F
FORT BRIDGER   PTCLDY    66  30  26 NW20G28   30.19S
ROCK SPRINGS   FAIR      68  27  21 W22G38    30.10F
DIXON          FAIR      69  36  29 W9        30.11F
RAWLINS        FAIR      68  27  21 W20G26    30.06F
SARATOGA       FAIR      66  32  28 W14G28    30.09F
LARAMIE        FAIR      61  31  32 NW23G36   30.08F
CHEYENNE       LGT RAIN  58  50  75 CALM      30.03F
TORRINGTON     FAIR      74  39  28 NW9       29.92F
PINE BLUFFS    LGT RAIN  61  46  59 N10       30.01F

$$




USA.gov is the U.S. government's official web portal to all federal, state and local government web resources and services.